Location: Bear Valley Community Church - Hurst
(32.8460°N, 97.1828°W)
Time: 01:33:21
(UTC+00:00)

Cosmos 1092 Rocket - Pass Details

Date: 10 July 2022
Orbit: 955 x 994 km, 83.0° (Epoch: 07 August)

Event Time Altitude Azimuth Distance (km) Brightness Sun altitude
Rises 10:56:49 0° 164° (SSE) 3,625 6.8 -6.6°
Reaches altitude 10° 10:59:27 10° 157° (SSE) 2,679 6.2 -6.2°
Maximum altitude 11:05:05 40° 90° (E) 1,379 5.5 -5.2°
Drops below altitude 10° 11:10:44 10° 23° (NNE) 2,687 7.2 -4.1°
Sets 11:13:22 0° 16° (NNE) 3,638 7.8 -3.6°
